Burnet, TX

10:28 AM CDT on August 22, 2017 (GMT -0500)
Burnet Municipal-Craddock

Weather History for KBMQ - September, 2013

Change the Weather History Date:

Friday, September 20, 2013

  Actual Average Record
Temperature  
Mean Temperature 74 °F -  
Max Temperature 77 °F 84 °F 100 °F (1999)
Min Temperature 70 °F 64 °F 55 °F (2006)
Cooling Degree Days 8    
Growing Degree Days 24 (Base 50)    
Moisture  
Dew Point 71 °F    
Average Humidity 93    
Maximum Humidity 100    
Minimum Humidity 87    
Precipitation  
Precipitation 2.07 in - - ()
Sea Level Pressure  
Sea Level Pressure 29.87 in    
Wind  
Wind Speed 5 mph (NNE)    
Max Wind Speed 15 mph    
Max Gust Speed 24 mph    
Visibility 5 miles    
Events Fog , Rain , Thunderstorm    
Averages and records for this station are not official NWS values.
T = Trace of Precipitation, MM = Missing Value Source: NWS Daily Summary

Daily Weather History Graph

Daily Weather History Graph

Search for Another Location

Airport or City:

Trip Planner

Search our weather history database for the weather conditions in past years. The results will help you decide how hot, cold, wet, or windy it might be!

Date:

Astronomy

Sep. 20, 2013 Rise Set
Actual Time 7:20 AM CDT 7:31 PM CDT
Civil Twilight 6:56 AM CDT 7:55 PM CDT
Nautical Twilight 6:28 AM CDT 8:23 PM CDT
Astronomical Twilight 5:59 AM CDT 8:52 PM CDT
Moon 8:16 PM CDT (9/20) 8:28 AM CDT (9/20)
Length of Visible Light 12h 59m
Length of Day
12h 11m
Full, 98% of the Moon is Illuminated
Sep 20
Full
Sep 26
Last Quarter
Oct 4
New
Oct 11
First Quarter
Oct 18
Full

Hourly Weather History & Observations

Time (CDT) Temp. Dew Point Humidity Pressure Visibility Wind Dir Wind Speed Gust Speed Precip Events Conditions
12:53 AM 75.0 °F 73.0 °F 94% 29.87 in 10.0 mi SSE 3.5 mph - N/A   Mostly Cloudy
1:33 AM 75.0 °F 73.0 °F 94% 29.92 in 10.0 mi SSE 3.5 mph - 0.00 in Rain Light Rain
1:53 AM 75.0 °F 73.0 °F 94% 29.86 in 10.0 mi SSE 3.5 mph - 0.00 in Rain Light Rain
2:24 AM 75.0 °F 73.0 °F 94% 29.91 in 9.0 mi SE 5.8 mph - 0.00 in Rain Light Rain
2:53 AM 75.0 °F 73.0 °F 94% 29.85 in 10.0 mi SSE 5.8 mph - 0.00 in Rain Light Rain
3:53 AM 75.0 °F 73.0 °F 94% 29.85 in 9.0 mi SSE 5.8 mph - 0.00 in   Overcast
4:53 AM 75.0 °F 73.0 °F 94% 29.83 in 7.0 mi South 4.6 mph - N/A   Mostly Cloudy
5:10 AM 73.9 °F 73.0 °F 97% 29.88 in 7.0 mi Calm Calm - N/A   Scattered Clouds
5:38 AM 73.9 °F 73.0 °F 97% 29.87 in 6.0 mi Calm Calm - N/A   Mostly Cloudy
5:49 AM 73.4 °F 73.4 °F 100% 29.87 in 7.0 mi Calm Calm - N/A   Mostly Cloudy
5:53 AM 73.9 °F 73.0 °F 97% 29.82 in 7.0 mi Calm Calm - N/A   Overcast
6:09 AM 73.9 °F 73.0 °F 97% 29.87 in 6.0 mi Calm Calm - N/A   Mostly Cloudy
6:16 AM 73.9 °F 73.0 °F 97% 29.87 in 6.0 mi Calm Calm - N/A   Mostly Cloudy
6:26 AM 75.0 °F 73.0 °F 94% 29.87 in 7.0 mi Calm Calm - N/A   Mostly Cloudy
6:53 AM 75.0 °F 73.0 °F 94% 29.81 in 7.0 mi Calm Calm - N/A   Overcast
7:18 AM 75.0 °F 73.0 °F 94% 29.87 in 7.0 mi Calm Calm - N/A   Overcast
7:53 AM 75.0 °F 73.0 °F 94% 29.83 in 5.0 mi Calm Calm - N/A   Overcast
8:37 AM 75.0 °F 72.0 °F 90% 29.89 in 5.0 mi Calm Calm - 0.00 in Rain Light Rain
8:44 AM 75.0 °F 72.0 °F 90% 29.89 in 6.0 mi Calm Calm - 0.00 in Rain Light Rain
8:53 AM 75.9 °F 73.0 °F 91% 29.84 in 7.0 mi NNW 3.5 mph - 0.00 in   Overcast
9:10 AM 75.9 °F 73.0 °F 91% 29.89 in 7.0 mi Calm Calm - N/A   Overcast
9:53 AM 77.0 °F 73.0 °F 88% 29.83 in 8.0 mi North 3.5 mph - 0.00 in   Overcast
10:20 AM 77.0 °F 73.0 °F 88% 29.88 in 9.0 mi NNW 4.6 mph - N/A   Overcast
10:33 AM 77.0 °F 73.9 °F 90% 29.89 in 2.5 mi NNW 4.6 mph - 0.00 in Rain Light Rain
10:44 AM 77.0 °F 73.9 °F 90% 29.88 in 4.0 mi NNW 5.8 mph - 0.00 in Rain Light Rain
10:53 AM 77.0 °F 73.0 °F 88% 29.84 in 7.0 mi NNW 5.8 mph - 0.00 in Rain Light Rain
11:06 AM 75.9 °F 73.0 °F 91% 29.88 in 2.0 mi NNW 6.9 mph - 0.01 in Rain , Thunderstorm Rain
11:26 AM 75.0 °F 73.0 °F 94% 29.89 in 1.8 mi East 4.6 mph - 0.05 in Rain , Thunderstorm Rain
11:30 AM 75.0 °F 73.0 °F 94% 29.89 in 1.2 mi East 3.5 mph - 0.12 in Rain Heavy Rain
11:38 AM 73.9 °F 73.0 °F 97% 29.88 in 0.5 mi Variable 3.5 mph - 0.41 in Fog , Rain Heavy Rain
11:41 AM 73.9 °F 73.0 °F 97% 29.89 in 0.5 mi North 4.6 mph - 0.43 in Fog , Rain Heavy Rain
11:45 AM 73.9 °F 73.0 °F 97% 29.88 in 1.0 mi Calm Calm - 0.44 in Rain Rain
11:53 AM 75.0 °F 73.0 °F 94% 29.83 in 1.5 mi NE 4.6 mph - 0.47 in Rain Rain
11:58 AM 75.0 °F 73.0 °F 94% 29.88 in 2.5 mi NE 4.6 mph - 0.00 in Rain Light Rain
12:03 PM 75.0 °F 73.0 °F 94% 29.88 in 3.0 mi NE 3.5 mph - 0.00 in Rain Light Rain
12:11 PM 75.0 °F 73.0 °F 94% 29.87 in 1.8 mi NNE 5.8 mph - 0.05 in Rain Heavy Rain
12:14 PM 75.0 °F 73.0 °F 94% 29.87 in 1.0 mi NE 4.6 mph - 0.10 in Rain Heavy Rain
12:24 PM 73.9 °F 73.0 °F 97% 29.88 in 1.5 mi WNW 4.6 mph - 0.13 in Rain Rain
12:28 PM 73.9 °F 73.0 °F 97% 29.88 in 0.8 mi NNW 3.5 mph - 0.24 in Rain Heavy Rain
12:31 PM 73.9 °F 73.0 °F 97% 29.88 in 0.2 mi Variable 3.5 mph - 0.36 in Fog , Rain , Thunderstorm Heavy Rain
12:41 PM 73.0 °F 72.0 °F 96% 29.88 in 0.2 mi ENE 9.2 mph 18.4 mph 0.74 in Fog , Rain , Thunderstorm Heavy Rain
12:43 PM 73.0 °F 72.0 °F 96% 29.88 in 0.5 mi ENE 8.1 mph 18.4 mph 0.76 in Fog , Rain , Thunderstorm Heavy Rain
12:51 PM 73.4 °F 71.6 °F 94% 29.88 in 1.2 mi NE 5.8 mph - 0.80 in Rain , Thunderstorm Heavy Thunderstorms and Rain
12:53 PM 73.0 °F 72.0 °F 96% 29.83 in 1.2 mi NE 5.8 mph - 0.81 in Rain , Thunderstorm Heavy Thunderstorms and Rain
12:58 PM 73.0 °F 72.0 °F 96% 29.88 in 1.5 mi NE 6.9 mph - 0.03 in Rain , Thunderstorm Heavy Thunderstorms and Rain
1:12 PM 72.0 °F 71.1 °F 97% 29.87 in 1.8 mi NE 11.5 mph 18.4 mph 0.10 in Rain Heavy Rain
1:15 PM 72.0 °F 70.0 °F 93% 29.87 in 2.0 mi NNE 11.5 mph 18.4 mph 0.10 in Rain Rain
1:20 PM 72.0 °F 71.1 °F 97% 29.87 in 2.5 mi North 12.7 mph 18.4 mph 0.10 in Rain Light Rain
1:27 PM 72.0 °F 70.0 °F 93% 29.87 in 4.0 mi NNE 10.4 mph - 0.11 in Rain Rain
1:53 PM 72.0 °F 70.0 °F 93% 29.82 in 3.0 mi NNE 10.4 mph - 0.14 in Rain Rain
1:58 PM 72.0 °F 70.0 °F 93% 29.88 in 4.0 mi North 8.1 mph - 0.00 in Rain Light Rain
2:04 PM 72.0 °F 70.0 °F 93% 29.88 in 2.5 mi Variable 6.9 mph - 0.03 in Rain Rain
2:07 PM 72.0 °F 70.0 °F 93% 29.88 in 1.2 mi North 5.8 mph - 0.11 in Rain Heavy Rain
2:17 PM 71.1 °F 70.0 °F 96% 29.88 in 0.8 mi North 6.9 mph - 0.32 in Rain Heavy Rain
2:29 PM 71.1 °F 70.0 °F 96% 29.88 in 0.8 mi North 6.9 mph - 0.49 in Rain Heavy Rain
2:40 PM 71.1 °F 70.0 °F 96% 29.88 in 1.5 mi North 8.1 mph 19.6 mph 0.55 in Rain Rain
2:43 PM 71.1 °F 70.0 °F 96% 29.88 in 2.0 mi North 8.1 mph - 0.57 in Rain Rain
2:53 PM 71.1 °F 70.0 °F 96% 29.83 in 2.0 mi North 10.4 mph - 0.61 in Rain Heavy Rain
2:59 PM 71.1 °F 70.0 °F 96% 29.87 in 3.0 mi North 9.2 mph - 0.01 in Rain Rain
3:53 PM 72.0 °F 70.0 °F 93% 29.83 in 9.0 mi North 12.7 mph 23.0 mph 0.03 in Rain Light Rain
4:11 PM 72.0 °F 69.1 °F 91% 29.88 in 1.8 mi North 11.5 mph 23.0 mph 0.01 in Rain Light Rain
4:17 PM 72.0 °F 69.1 °F 91% 29.88 in 3.0 mi North 12.7 mph 23.0 mph 0.01 in Rain Light Rain
4:41 PM 72.0 °F 70.0 °F 93% 29.88 in 6.0 mi North 11.5 mph - 0.01 in Rain Light Rain
4:53 PM 71.1 °F 69.1 °F 93% 29.83 in 6.0 mi NNE 13.8 mph 21.9 mph 0.01 in Rain Light Rain
5:15 PM 71.1 °F 69.1 °F 93% 29.88 in 4.0 mi NNE 12.7 mph 20.7 mph 0.00 in Rain Light Rain
5:28 PM 71.1 °F 68.0 °F 90% 29.88 in 8.0 mi NNE 11.5 mph 24.2 mph 0.00 in Rain Light Rain
5:39 PM 71.1 °F 68.0 °F 90% 29.89 in 6.0 mi NNE 10.4 mph 23.0 mph 0.00 in Rain Light Rain
5:53 PM 70.0 °F 68.0 °F 93% 29.84 in 8.0 mi NNE 12.7 mph 20.7 mph 0.00 in Rain Light Rain
6:16 PM 70.0 °F 68.0 °F 93% 29.89 in 10.0 mi NNE 10.4 mph - 0.00 in Rain Light Rain
6:53 PM 70.0 °F 66.9 °F 90% 29.83 in 10.0 mi NNE 15.0 mph 23.0 mph 0.00 in   Mostly Cloudy
7:05 PM 70.0 °F 66.9 °F 90% 29.89 in 10.0 mi NE 12.7 mph 19.6 mph 0.00 in Rain Light Rain
7:18 PM 70.0 °F 66.9 °F 90% 29.89 in 10.0 mi NE 10.4 mph - 0.00 in Rain Light Rain
7:43 PM 70.0 °F 66.9 °F 90% 29.89 in 10.0 mi NNE 12.7 mph 20.7 mph 0.00 in   Overcast
7:53 PM 70.0 °F 66.9 °F 90% 29.85 in 10.0 mi NE 10.4 mph - 0.00 in   Overcast
8:37 PM 70.0 °F 68.0 °F 93% 29.89 in 10.0 mi NE 8.1 mph - 0.00 in   Overcast
8:53 PM 70.0 °F 68.0 °F 93% 29.86 in 10.0 mi NNE 8.1 mph - 0.00 in   Overcast
9:11 PM 70.0 °F 68.0 °F 93% 29.92 in 10.0 mi North 4.6 mph - 0.00 in Rain Light Rain
9:53 PM 71.1 °F 68.0 °F 90% 29.88 in 10.0 mi North 6.9 mph - 0.00 in   Overcast
10:06 PM 70.0 °F 68.0 °F 93% 29.94 in 10.0 mi North 8.1 mph - N/A   Overcast
10:32 PM 71.1 °F 68.0 °F 90% 29.94 in 10.0 mi NNE 8.1 mph - N/A   Overcast
10:35 PM 70.0 °F 68.0 °F 93% 29.94 in 10.0 mi North 12.7 mph 17.3 mph 0.00 in Rain Light Rain
10:53 PM 70.0 °F 66.9 °F 90% 29.89 in 10.0 mi North 12.7 mph 19.6 mph 0.00 in   Overcast
11:04 PM 70.0 °F 66.9 °F 90% 29.94 in 10.0 mi North 13.8 mph 20.7 mph N/A   Overcast
11:53 PM 70.0 °F 66.0 °F 87% 29.89 in 10.0 mi NNE 10.4 mph - N/A   Overcast